www.pogodaiklimat.ru

Погода и климат >> Архив погоды >> Гана >> Wa


ПОГОДА в Wa

  • Прогноз погоды в Wa
  • Монитор погоды в Wa
  • Климат города

АРХИВ ПОГОДЫ в Wa

Время (UTC), дата Ветер
(напр.,м/с)
 
Видим.   Явления Облачность Т
(С)
Тd
(С)
f
(%)
Тe
(С)
Тes
(С)
Комфортность P
(гПа)
Po
(гПа)
Тmin
(С)
Tmax
(С)
R
(мм)
R24
(мм)
S
(см)
06 16.01 СВ 2 8000 м мгла ясно +21.0 +1.6 28 +22 +22 комфорт 1012.8 1013.0 +20.0
09 16.01 СВ 3 8000 м мгла ясно +26.5 -0.1 18 +25 +30 комфорт 1013.7 1014.0
12 16.01 СВ 2 8000 м мгла ясно +32.5 +3.9 16 +30 +48 жарко 1012.5 1013.0
15 16.01 СВ 1 8000 м мгла ясно +35.5 +5.2 15 +33 +44 жарко 1009.3 1009.0
18 16.01 СВ 2 8000 м мгла ясно +32.0 +10.5 27 +32 +32 жарко 1010.5 1011.0 +35.5
21 16.01 штиль 0 4500 м мгла ясно +26.5 +8.1 31 +26 +26 жарко 1013.4 1013.0
06 17.01 СВ 3 4500 м мгла ясно +24.0 +2.5 25 +23 +23 комфорт 1012.5 1013.0 +23.5
12 17.01 СВ 3 4000 м мгла ясно +32.0 +0.7 14 +29 +43 жарко 1012.8 1013.0
15 17.01 СВ 3 4000 м мгла ясно +35.5 +3.4 13 +32 +39 жарко 1008.8 1009.0
18 17.01 штиль 0 4000 м мгла 4/0
[Ci sp]
+31.5 +1.1 14 +29 +29 жарко 1009.6 1010.0 +35.5
21 17.01 штиль 0 4000 м мгла ясно +27.5 +8.4 30 +27 +27 жарко 1012.7 1013.0
00 18.01 штиль 0 8000 м мгла ясно +24.0 +2.1 24 +23 +23 комфорт 1012.6 1013.0
06 18.01 штиль 0 4000 м мгла ясно +22.0 +6.4 36 +23 +23 комфорт 1012.5 1013.0 +21.5
15 18.01 СВ 3 8000 м мгла 8/0
[Cs]
+37.0 +3.2 12 +34 +40 очень
жарко
1008.8 1009.0
18 18.01 СВ 2 8000 м мгла 9/0
[Cs]
+34.8 +12.1 25 +35 +35 очень
жарко
1009.3 1009.0 +37.0
21 18.01 штиль 0 8000 м мгла 3/0
[Ci sp]
+27.5 +5.5 25 +27 +27 жарко 1012.2 1012.0
00 19.01 штиль 0 8000 м мгла ясно +24.0 +5.4 30 +24 +24 комфорт 1012.7 1013.0
06 19.01 СВ 2 8000 м мгла 3/0
[Ci sp]
+21.5 -1.1 22 +21 +21 комфорт 1012.4 1012.0 +20.5
09 19.01 СВ 5 8000 м мгла ясно +28.5 -4.3 11 +25 +29 комфорт 1013.0 1013.0
12 19.01 СВ 3 8000 м мгла ясно +34.0 -1.1 11 +30 +45 жарко 1011.6 1012.0
15 19.01 СВ 2 12 км ясно +37.0 +1.0 10 +33 +43 жарко 1012.3 1012.0
21 19.01 штиль 0 12 км ясно +27.0 +2.9 21 +25 +25 комфорт 1012.5 1013.0
09 20.01 СВ 2 12 км ясно +28.0 -0.8 15 +25 +33 комфорт 1013.3 1013.0
12 20.01 СВ 3 12 км ясно +34.5 +0.8 12 +31 +45 жарко 1011.6 1012.0
15 20.01 СВ 2 12 км ясно +37.0 +3.5 12 +34 +43 очень
жарко
1008.5 1009.0
18 20.01 СВ 2 12 км ясно +33.0 +8.1 21 +31 +31 жарко 1008.7 1009.0 +37.0
21 20.01 штиль 0 12 км ясно +25.7 +5.6 28 +25 +25 комфорт 1012.4 1012.0
06 21.01 СВ 2 12 км ясно +22.2 -0.4 22 +21 +21 комфорт 1012.6 1013.0 +21.3
09 21.01 СВ 2 12 км ясно +28.0 -0.8 15 +25 +33 комфорт 1013.5 1014.0
12 21.01 СВ 3 12 км ясно +34.0 +1.6 13 +31 +45 жарко 1011.9 1012.0
15 21.01 ЮВ 1 12 км ясно +36.5 +3.9 13 +33 +44 жарко 1009.3 1009.0
18 21.01 СВ 2 12 км ясно +34.5 +6.4 18 +32 +32 жарко 1009.2 1009.0 +36.5
21 21.01 СВ 1 12 км ясно +26.5 +5.2 26 +26 +26 жарко 1011.9 1012.0
00 22.01 СВ 2 8000 м мгла ясно +27.0 -1.1 16 +25 +25 комфорт 1012.6 1013.0
12 22.01 ЮВ 2 8000 м мгла ясно +33.5 +0.3 12 +30 +48 жарко 1011.3 1011.0
15 22.01 ЮВ 3 8000 м мгла ясно +35.0 +2.1 13 +32 +39 жарко 1007.3 1007.0
18 22.01 СВ 2 8000 м мгла ясно +33.0 +3.2 15 +30 +30 жарко 1008.7 1009.0 +35.0
21 22.01 СВ 1 8000 м мгла ясно +27.0 +2.9 21 +25 +25 комфорт 1012.1 1012.0
00 23.01 СВ 2 8000 м мгла ясно +23.8 +0.6 22 +23 +23 комфорт 1012.0 1012.0

 

Местоположение метеостанции Wa (Гана): широта 10.05 долгота -2.50 высота над уровнем моря 323 м.

В архиве по умолчанию представлена погода в Wa за последнюю неделю. Архивные данные за месяц целиком и за предыдущие месяцы, начиная с января 2011 года, Вы можете получить, выбрав интересующий диапазон дат из раскрывающегося списка и нажав кнопку "Ввод!".

Внимание! Время в таблицах - всемирное. Для получения местного времени необходимо прибавить поправку, которая в Wa равна 1 ч.

Смотрите также архив погоды в соседних городах и на ближайших метеорологических станциях:

Погода в Gaoua (Буркина-Фасо) (81 км)
Погода в Bole (Гана) (113 км)
Погода в Navrongo (Гана) (180 км)
Погода в Tamale (Гана) (191 км)
Погода в Po (Буркина-Фасо) (192 км)
Погода в Boromo (Буркина-Фасо) (195 км)
Погода в Bondoukou (Кот-д'Ивуар) (225 км)
Погода в Bobo-Dioulasso (Буркина-Фасо) (235 км)
Погода в Wenchi (Гана) (260 км)
Погода в Ouagadougou (Буркина-Фасо) (277 км)

Пояснения к столбцам:

Ветер - указаны скорость ветра в м/с - средняя за 10 мин, порывы в срок и между сроками (в фигурных скобках) и направление, откуда дует ветер: С - северный, СВ - северо-восточный, В - восточный, ЮВ - юго-восточный, Ю - южный, ЮЗ - юго-западный, З - западный, СЗ - северо-западный.
Видимость - горизонтальная дальность видимости в метрах или километрах. При видимости от 1 до 10 км при отсутствии осадков обычно наблюдается дымка, при ухудшении видимости до 1 км и менее - туман. В сухую погоду видимость может ухудшаться дымом, пылью или мглою.
Явления - указаны атмосферные явления, наблюдавшиеся в срок или в последний час перед сроком; фигурными скобками обозначены явления, наблюдавшиеся между сроками (за 1-3 часа до срока); квадратными скобками обозначены град или гололедные отложения с указанием их диаметра в мм.
Облачность - указаны через наклонную черту общая и нижняя облачность в баллах и высота нижней границы облаков в метрах; квадратными скобками обозначены формы облаков: Ci - перистые, Cs - перисто-слоистые, Cc - перисто-кучевые, Ac - высококучевые, As - высокослоистые, Sc - слоисто-кучевые, Ns - слоисто-дождевые, Cu - кучевые, Cb - кучево-дождевые. Подробнее классификацию облаков см. в Атласе облаков (PDF).
T - Температура воздуха - температура, измеренная на высоте 2 м над землей.
Td - Температура точки росы - температура, при понижении до которой содержащийся в воздухе водяной пар достигнет насыщения.
f - Относительная влажность воздуха - влажноcть воздуха, измеренная на высоте 2 м над землей.
Te - Эффективная температура - температура, которую ощущает одетый по сезону человек в тени. Характеристика душности погоды. При расчете учитывается влияние влажности воздуха и скорости ветра на теплоощущения человека.
Tes - Эффективная температура на солнце - температура, которую ощущает человек, с поправкой на солнечный нагрев. Характеристика знойности погоды. Зависит от высоты солнца над горизонтом, облачности и скорости ветра. Ночью, в пасмурную погоду, а также при ветре 12 м/с и более поправка равна нулю.
P - Атмосферное давление - приведенное к уровню моря атмосферное давление.
Po - Атмосферное давление - измеренное на уровне метеостанции атмосферное давление.
Tmin - Минимальная температура - минимум температуры воздуха на высоте 2 м над землей.
Tmax - Максимальная температура - максимум температуры воздуха на высоте 2 м над землей.
R - Количество осадков - Количество выпавших осадков за период времени, мм. При наведении курсора мыши на число - период времени, за который выпало указанное количество осадков.
R24 - Количество осадков - Количество выпавших осадков за 24 часа, мм.
S - Снежный покров - Высота снежного покрова, см. При наведении курсора мыши на число - состояние снежного покрова и степень покрытия местности в баллах.